Portada
METAR-TAF:

METAR-TAF

Aeropuertos :

Bandar Lengeh, Irán

latitud: 26-35N, longitud: 054-50E, altitud: 14 m

Observación

El informe se hizo hace 13 minutos, a las 04:00 UTC
Viento 4 kt del este
Temperatura 33°C
Humedad 53%
Presión 1005 hPa
Visibilidad 10 km o más
sin nubes por debajo de 1500 m y sin presencia de cumulonimbus.

METAR: OIBL 270400Z 10004KT CAVOK 33/22 Q1005

Hora: 08:43 (04:13 UTC)


TAF: falta

Observaciones y pronósticos meteorológicos de más de 4000 aeropuertos (mensajes METAR y TAF).

Los puntos amarillos y rojos representan las estaciones disponibles.

Ponga el ratón en el punto deseado para ver el nombre de la estación.

Haga clic para ver las observaciones y los pronósticos meteorológicos.

Para cambiar el mapa : haga clic en los botones verdes con una cruz de color negro para hacer un zoom, en el botón verde con un guión para alejar o en las flechas verdes para mapas adyacentes.


METAR-TAF: